Regional Weather Roundup
Issued by NWS

Home | Current Version | Previous Version | Graphics & Text | Print | Product List | Glossary On
Versions: 1 2 3 4 5 6 7 8 9 10 11 12 13 14 15 16 17 18 19 20 21 22 23 24 25 26 27 28 29 30 31 32 33 34 35 36 37 38 39 40 41 42 43 44 45 46 47 48 49 50
000
ASUS43 KTOP 232308
RWRKS

WEATHER ROUNDUP FOR KANSAS
NATIONAL WEATHER SERVICE GOODLAND KS
500 PM CST THU NOV 23 2017

NOTE:  "FAIR" INDICATES FEW OR NO CLOUDS BELOW 12,000 FEET WITH NO
SIGNIFICANT WEATHER AND/OR OBSTRUCTIONS TO VISIBILITY.

KSZ001>006-013>018-027>032-041>047-240000-
NORTHWEST KANSAS

CITY           SKY/WX    TMP DP  RH WIND       PRES   REMARKS
GOODLAND       CLOUDY    67  37  33 SW13      29.95F
HAYS           CLEAR     66  42  41 S5        29.93F
HILL CITY      CLEAR     69  41  36 SW6       29.91F
RUSSELL        CLOUDY    66  43  43 S8        29.91F
$$

KSZ061>065-074>080-084>089-240000-
SOUTHWEST KANSAS

CITY           SKY/WX    TMP DP  RH WIND       PRES   REMARKS
DODGE CITY     CLOUDY    68  40  35 W5        29.97F
ELKHART        CLOUDY    69  40  35 S3        30.02F
GARDEN CITY    CLOUDY    66  39  37 W7        29.98F
GREAT BEND     CLEAR     68  41  37 S8        29.93F
LIBERAL        CLOUDY    70  40  33 CALM      30.01S
PRATT          CLEAR     65  37  35 S8        29.95F
$$

KSZ066>073-081>083-090>101-240000-
SOUTHEAST KANSAS

CITY           SKY/WX    TMP DP  RH WIND       PRES   REMARKS
CHANUTE        CLEAR     57  34  41 S7        29.97F
COFFEYVILLE    CLEAR     60  33  36 S6        29.98F
HUTCHINSON     CLEAR     65  40  39 S7        29.94F
MEDICINE LODGE   N/A     66  41  40 S6        29.96F
NEWTON         CLEAR     63  39  41 S8        29.95F
PARSONS        CLEAR     60  32  34 S3        29.98F
WICHITA INTL   PTCLDY    61  40  45 S8        29.95F
WICHITA JABRA  CLEAR     63  38  39 S7        29.95F
WICHITA MCCONL CLEAR     63  37  38 SW7       29.95F
WINFIELD       CLEAR     60  36  40 S6        29.98F
$$

KSZ007>012-019>026-033>040-048>060-102>105-240000-
NORTHEAST KANSAS

CITY           SKY/WX    TMP DP  RH WIND       PRES   REMARKS
CONCORDIA      CLEAR     62  41  46 S9        29.90F
EMPORIA        CLEAR     64  38  38 SE8       29.93F
LAWRENCE       CLEAR     59  38  45 E5        29.94F
MANHATTAN      CLEAR     65  39  38 SW3       29.91F
MARYSVILLE     CLEAR     61  39  44 S5        29.90S
OLATHE IND     CLEAR     56  37  49 S6        29.95F
OLATHE EXE     CLEAR     58  37  45 S3        29.95S
SALINA         CLEAR     66  42  41 S6        29.92F
TOPEKA BILLARD CLOUDY    61  41  47 SE5       29.92F
TOPEKA FORBES  CLEAR     63  38  39 SE6       29.92F
$$




USA.gov is the U.S. government's official web portal to all federal, state and local government web resources and services.